Location: Holyhead Bay
(53.3667°N, 4.6667°W)
Time: 22:47:49
(UTC+00:00)

Cosmos 1408 Rocket - Pass Details

Date: 14 April 2021
Orbit: 601 x 631 km, 82.6° (Epoch: 16 May)

Event Time Altitude Azimuth Distance (km) Brightness Sun altitude
Rises 22:31:06 0° 350° (N) 2,867 8.2 -22.9°
Reaches altitude 10° 22:33:21 10° 353° (N) 1,958 7.1 -23.0°
Enters shadow 22:37:38 67° 74° (ENE) 656 3.5 -23.3°
